Weather History for Morganton, NC

Change the Weather History Date:

Thursday, August 8, 2013

  Actual Average (KHKY) Record (KHKY)
Temperature  
Mean Temperature 76 °F -  
Max Temperature 83 °F 86 °F 100 °F (2007)
Min Temperature 68 °F 66 °F 55 °F (2002)
Cooling Degree Days 10    
Growing Degree Days 26 (Base 50)    
Moisture  
Dew Point 71 °F    
Average Humidity 89    
Maximum Humidity 100    
Minimum Humidity 63    
Precipitation  
Precipitation 0.00 in - - ()
Sea Level Pressure  
Sea Level Pressure 30.12 in    
Wind  
Wind Speed 1 mph (WSW)    
Max Wind Speed 10 mph    
Max Gust Speed -    
Visibility 6 miles    
Events Fog , Rain    
Averages and records for this station are not official NWS values.
T = Trace of Precipitation, MM = Missing Value Source: NWS Daily Summary

Daily Weather History Graph

Daily Weather History Graph

Search for Another Location

Airport:

Trip Planner

Search our weather history database for the weather conditions in past years. The results will help you decide how hot, cold, wet, or windy it might be!

Date:

Astronomy

Aug. 08, 2013 Rise Set
Actual Time 6:39 AM EDT 8:23 PM EDT
Civil Twilight 6:12 AM EDT 8:51 PM EDT
Nautical Twilight 5:38 AM EDT 9:24 PM EDT
Astronomical Twilight 5:03 AM EDT 9:59 PM EDT
Moon 8:19 AM EDT (8/8) 9:08 PM EDT (8/8)
Length of Visible Light 14h 39m
Length of Day
13h 43m
Waxing Crescent, 3% of the Moon is Illuminated
Aug 8
Waxing Crescent
Aug 14
First Quarter
Aug 20
Full
Aug 28
Last Quarter
Sep 5
New

Hourly Weather History & Observations

Time (EDT) Temp. Heat Index Dew Point Humidity Pressure Visibility Wind Dir Wind Speed Gust Speed Precip Events Conditions
12:15 AM 70.9 °F - 70.9 °F 100% 30.14 in 7.0 mi Calm Calm - N/A   Overcast
12:35 AM 70.7 °F - 70.7 °F 100% 30.14 in 3.0 mi Calm Calm - N/A Rain Light Rain
12:55 AM 70.9 °F - 70.9 °F 100% 30.14 in 4.0 mi Calm Calm - N/A   Overcast
1:15 AM 70.7 °F - 70.7 °F 100% 30.13 in 3.0 mi Calm Calm - N/A   Overcast
1:35 AM 70.0 °F - 70.0 °F 100% 30.12 in 2.5 mi Calm Calm - N/A   Mostly Cloudy
1:55 AM 70.2 °F - 70.2 °F 100% 30.12 in 3.0 mi Calm Calm - N/A   Overcast
2:15 AM 69.8 °F - 69.8 °F 100% 30.12 in 3.0 mi Calm Calm - N/A   Overcast
2:35 AM 70.2 °F - 70.2 °F 100% 30.12 in 2.5 mi Calm Calm - N/A   Overcast
2:55 AM 69.3 °F - 69.3 °F 100% 30.12 in 0.5 mi Calm Calm - N/A Fog Fog
3:15 AM 69.8 °F - 69.8 °F 100% 30.12 in 0.2 mi Calm Calm - N/A Fog Fog
3:35 AM 70.2 °F - 70.2 °F 100% 30.12 in 1.0 mi Calm Calm - N/A   Overcast
3:55 AM 70.2 °F - 70.2 °F 100% 30.11 in 2.5 mi Calm Calm - N/A   Overcast
4:15 AM 70.2 °F - 70.2 °F 100% 30.11 in 0.8 mi Calm Calm - N/A   Overcast
4:35 AM 69.8 °F - 69.8 °F 100% 30.11 in 1.8 mi Calm Calm - N/A   Overcast
4:55 AM 70.2 °F - 70.2 °F 100% 30.11 in 3.0 mi Calm Calm - N/A   Overcast
5:15 AM 69.3 °F - 69.3 °F 100% 30.11 in 1.2 mi Calm Calm - N/A   Overcast
5:35 AM 69.1 °F - 69.1 °F 100% 30.11 in 0.8 mi Calm Calm - N/A   Overcast
5:55 AM 68.9 °F - 68.9 °F 100% 30.10 in 2.0 mi Calm Calm - N/A   Overcast
6:15 AM 68.4 °F - 68.4 °F 100% 30.10 in 4.0 mi Calm Calm - N/A   Scattered Clouds
6:35 AM 68.0 °F - 68.0 °F 100% 30.11 in 3.0 mi Calm Calm - N/A   Mostly Cloudy
6:55 AM 69.8 °F - 69.8 °F 100% 30.11 in 0.5 mi Calm Calm - N/A Fog Fog
7:15 AM 68.9 °F - 68.9 °F 100% 30.12 in 0.2 mi Calm Calm - N/A Fog Fog
7:35 AM 69.8 °F - 69.8 °F 100% 30.12 in 3.0 mi Calm Calm - N/A   Overcast
7:55 AM 70.3 °F - 70.3 °F 100% 30.13 in 3.0 mi Calm Calm - N/A   Overcast
8:15 AM 70.7 °F - 70.7 °F 100% 30.13 in 3.0 mi Calm Calm - N/A   Overcast
8:35 AM 70.7 °F - 70.7 °F 100% 30.13 in 4.0 mi Calm Calm - N/A   Overcast
8:55 AM 71.2 °F - 71.2 °F 100% 30.14 in 5.0 mi Calm Calm - N/A   Overcast
9:15 AM 71.6 °F - 71.6 °F 100% 30.14 in 7.0 mi Calm Calm - N/A   Overcast
9:35 AM 72.0 °F - 72.0 °F 100% 30.14 in 7.0 mi Calm Calm - N/A   Overcast
9:55 AM 72.5 °F - 71.2 °F 96% 30.14 in 10.0 mi Calm Calm - N/A   Overcast
10:15 AM 73.0 °F - 70.5 °F 92% 30.14 in 10.0 mi Calm Calm - N/A   Overcast
10:35 AM 73.4 °F - 70.3 °F 90% 30.14 in 10.0 mi Calm Calm - N/A   Overcast
10:55 AM 74.8 °F - 69.8 °F 84% 30.14 in 10.0 mi Calm Calm - N/A   Overcast
11:15 AM 75.9 °F - 70.2 °F 82% 30.15 in 10.0 mi Calm Calm - N/A   Overcast
11:35 AM 76.8 °F - 70.7 °F 81% 30.15 in 10.0 mi Calm Calm - N/A   Overcast
11:55 AM 77.0 °F - 69.6 °F 78% 30.15 in 10.0 mi Calm Calm - N/A   Overcast
12:15 PM 77.9 °F - 70.3 °F 77% 30.14 in 10.0 mi WNW 3.5 mph - N/A   Overcast
12:35 PM 78.1 °F - 70.3 °F 77% 30.14 in 10.0 mi Calm Calm - N/A   Overcast
12:55 PM 79.0 °F - 70.5 °F 75% 30.14 in 10.0 mi SW 3.5 mph - N/A   Overcast
1:15 PM 80.2 °F 83.3 °F 69.6 °F 70% 30.14 in 10.0 mi WSW 3.5 mph - N/A   Mostly Cloudy
1:35 PM 81.9 °F 85.4 °F 69.6 °F 66% 30.13 in 10.0 mi SSW 6.9 mph - N/A   Mostly Cloudy
1:55 PM 82.4 °F 85.6 °F 68.5 °F 63% 30.12 in 10.0 mi WSW 4.6 mph - N/A   Scattered Clouds
2:15 PM 82.6 °F 86.1 °F 69.4 °F 64% 30.12 in 10.0 mi SW 5.8 mph - N/A   Mostly Cloudy
2:35 PM 83.7 °F 87.7 °F 69.8 °F 63% 30.10 in 10.0 mi SSW 4.6 mph - N/A   Scattered Clouds
2:55 PM 82.4 °F 86.3 °F 70.0 °F 66% 30.10 in 10.0 mi WSW 3.5 mph - N/A   Scattered Clouds
3:15 PM 82.0 °F 86.1 °F 70.3 °F 68% 30.10 in 10.0 mi West 4.6 mph - N/A   Scattered Clouds
3:35 PM 81.9 °F 86.0 °F 70.7 °F 69% 30.09 in 10.0 mi West 4.6 mph - N/A   Scattered Clouds
3:55 PM 80.8 °F 84.9 °F 72.0 °F 74% 30.09 in 10.0 mi WSW 3.5 mph - N/A   Scattered Clouds
4:15 PM 81.1 °F 85.6 °F 72.1 °F 74% 30.09 in 10.0 mi SW 4.6 mph - N/A   Clear
4:35 PM 81.1 °F 84.9 °F 70.5 °F 70% 30.08 in 10.0 mi WSW 10.4 mph - N/A   Scattered Clouds
4:55 PM 80.2 °F 83.7 °F 70.7 °F 73% 30.08 in 10.0 mi WSW 8.1 mph - N/A   Scattered Clouds
5:15 PM 80.1 °F 83.6 °F 71.2 °F 74% 30.08 in 10.0 mi SW 5.8 mph - N/A   Clear
5:35 PM 79.7 °F - 71.2 °F 75% 30.09 in 10.0 mi WSW 4.6 mph - N/A   Scattered Clouds
5:55 PM 80.6 °F 84.6 °F 71.6 °F 74% 30.09 in 10.0 mi West 4.6 mph - N/A   Clear
6:15 PM 80.2 °F 83.9 °F 71.2 °F 74% 30.09 in 10.0 mi SSW 3.5 mph - N/A   Clear
6:35 PM 80.1 °F 83.6 °F 71.1 °F 74% 30.10 in 10.0 mi Calm Calm - N/A   Scattered Clouds
6:55 PM 79.2 °F - 71.8 °F 78% 30.10 in 10.0 mi Calm Calm - N/A   Clear
7:15 PM 79.2 °F - 73.0 °F 81% 30.10 in 10.0 mi Calm Calm - N/A   Scattered Clouds
7:35 PM 78.4 °F - 73.4 °F 84% 30.10 in 10.0 mi Calm Calm - N/A   Mostly Cloudy
7:55 PM 78.3 °F - 73.0 °F 84% 30.10 in 10.0 mi Calm Calm - N/A   Scattered Clouds
8:15 PM 77.4 °F - 73.0 °F 86% 30.10 in 10.0 mi Calm Calm - N/A   Clear
8:35 PM 76.1 °F - 74.3 °F 94% 30.10 in 7.0 mi Calm Calm - N/A   Clear
8:55 PM 75.6 °F - 73.8 °F 94% 30.10 in 7.0 mi Calm Calm - N/A   Clear
9:15 PM 74.8 °F - 73.4 °F 95% 30.10 in 7.0 mi Calm Calm - N/A   Clear
9:35 PM 73.6 °F - 73.2 °F 99% 30.10 in 4.0 mi Calm Calm - N/A   Scattered Clouds
9:55 PM 72.9 °F - 72.5 °F 99% 30.10 in 4.0 mi Calm Calm - N/A   Clear
10:15 PM 72.5 °F - 72.5 °F 100% 30.12 in 5.0 mi Calm Calm - N/A   Clear
10:35 PM 72.0 °F - 71.8 °F 99% 30.12 in 4.0 mi Calm Calm - N/A   Clear
10:55 PM 71.6 °F - 71.6 °F 100% 30.11 in 4.0 mi Calm Calm - N/A   Clear
11:15 PM 71.1 °F - 71.1 °F 100% 30.10 in 4.0 mi Calm Calm - N/A   Clear
11:35 PM 70.9 °F - 70.9 °F 100% 30.10 in 5.0 mi Calm Calm - N/A   Clear
11:55 PM 70.5 °F - 70.2 °F 99% 30.10 in 5.0 mi Calm Calm - N/A   Clear